Location: Grand Lay
(47.3253°N, 0.9468°E)
Time: 10:23:30
(UTC+00:00)

BREEZE-M DEB (TANK) - Pass Details

Date: 18 January 2026
Orbit: 313 x 16555 km, 49.5° (Epoch: 18 February)

Event Time Altitude Azimuth Distance (km) Brightness Sun altitude
Exits shadow 05:02:39 63° 191° (S) 807 3.5 -25.6°
Drops below altitude 10° 05:11:17 10° 123° (ESE) 4,521 8.3 -24.2°
Sets 05:18:15 0° 122° (ESE) 7,448 9.6 -23.0°
